﻿_id,日時,平均風速(m/s),平均風向,最大瞬間風速(m/s),最大風速時風向,気温(℃),湿度(%),10分間移動積算雨量(mm),1時間移動積算雨量(mm),日雨量(mm),累計雨量(mm)
1,2023-03-13T00:00:00,2.2,南南西,5,南南西,14.3,,0.5,0.5,0.5,0.5
2,2023-03-13T00:01:00,2.2,南南西,5,南南西,14.3,,0.5,0.5,0,0.5
3,2023-03-13T00:02:00,2.1,南,5,南南西,14.2,,0.5,0.5,0,0.5
4,2023-03-13T00:03:00,2.2,南,5.4,南南東,14.1,,0.5,0.5,0,0.5
5,2023-03-13T00:04:00,2.2,南,5.4,南南東,14.2,,0.5,0.5,0,0.5
6,2023-03-13T00:05:00,2.2,南,5.4,南南東,14.1,,0.5,0.5,0,0.5
7,2023-03-13T00:06:00,2.2,南,5.4,南南東,14.1,,0.5,0.5,0,0.5
8,2023-03-13T00:07:00,2.2,南,5.4,南南東,14,,0.5,0.5,0,0.5
9,2023-03-13T00:08:00,2,南,5.4,南南東,14,,0.5,0.5,0,0.5
10,2023-03-13T00:09:00,2.1,南,5.4,南南東,14,,0.5,0.5,0,0.5
11,2023-03-13T00:10:00,2.1,南,5.4,南南東,14,,0.5,1,0.5,1
12,2023-03-13T00:11:00,2,南,5.4,南南東,13.9,,0.5,1,0.5,1
13,2023-03-13T00:12:00,1.9,南,5.4,南南東,14,,0.5,1,0.5,1
14,2023-03-13T00:13:00,1.9,南,6.7,南,14.2,,0.5,1,0.5,1
15,2023-03-13T00:14:00,1.8,南,6.7,南,14.2,,0.5,1,0.5,1
16,2023-03-13T00:15:00,1.7,南,6.7,南,14.2,,0.5,1,0.5,1
17,2023-03-13T00:16:00,1.6,南,6.7,南,14.2,,0.5,1,0.5,1
18,2023-03-13T00:17:00,1.5,南,6.7,南,14.1,,0.5,1,0.5,1
19,2023-03-13T00:18:00,1.6,南,6.7,南,14.2,,0.5,1,0.5,1
20,2023-03-13T00:19:00,1.6,南,6.7,南,14.2,,0.5,1,0.5,1
21,2023-03-13T00:20:00,1.6,南,6.7,南,14.2,,0,1,0.5,1
22,2023-03-13T00:21:00,1.6,南,6.7,南,14.2,,0,1,0.5,1
23,2023-03-13T00:22:00,1.7,南,6.7,南,14.2,,0,1,0.5,1
24,2023-03-13T00:23:00,1.5,南,5.3,南南東,14.3,,0,1,0.5,1
25,2023-03-13T00:24:00,1.6,南,5.7,南東,14.5,,0,1,0.5,1
26,2023-03-13T00:25:00,1.7,南,5.7,南東,14.5,,0,1,0.5,1
27,2023-03-13T00:26:00,1.8,南,6.2,南,14.4,,0,1,0.5,1
28,2023-03-13T00:27:00,1.9,南,6.2,南,14.5,,0,1,0.5,1
29,2023-03-13T00:28:00,1.8,南,6.2,南,14.6,,0,1,0.5,1
30,2023-03-13T00:29:00,1.9,南,6.2,南,14.5,,0,1,0.5,1
31,2023-03-13T00:30:00,2.1,南,6.2,南,14.6,,0,1,0.5,1
32,2023-03-13T00:31:00,2.3,南,7.2,西南西,14.9,,0,1,0.5,1
33,2023-03-13T00:32:00,2.2,南,7.2,西南西,14.9,,0,1,0.5,1
34,2023-03-13T00:33:00,2.5,南,9.3,南南東,15,,0,1,0.5,1
35,2023-03-13T00:34:00,2.7,南,9.3,南南東,15,,0,1,0.5,1
36,2023-03-13T00:35:00,2.7,南,9.3,南南東,15,,0,1,0.5,1
37,2023-03-13T00:36:00,2.6,南,9.3,南南東,15,,0,1,0.5,1
38,2023-03-13T00:37:00,2.7,南,9.3,南南東,15,,0,1,0.5,1
39,2023-03-13T00:38:00,3,南南西,9.3,南南東,15,,0,1,0.5,1
40,2023-03-13T00:39:00,3,南南西,9.3,南南東,15,,0,1,0.5,1
41,2023-03-13T00:40:00,2.9,南南西,9.3,南南東,15,,0,1,0.5,1
42,2023-03-13T00:41:00,2.9,南南西,9.3,南南東,15,,0,1,0.5,1
43,2023-03-13T00:42:00,2.9,南南西,9.3,南南東,15,,0,1,0.5,1
44,2023-03-13T00:43:00,2.8,南南西,8.6,南西,15,,0,1,0.5,1
45,2023-03-13T00:44:00,2.7,南南西,8.6,南西,15,,0,1,0.5,1
46,2023-03-13T00:45:00,2.6,南南西,8.6,南西,14.9,,0,1,0.5,1
47,2023-03-13T00:46:00,2.7,南,10.4,南,14.9,,0,1,0.5,1
48,2023-03-13T00:47:00,2.9,南,10.4,南,15.1,,0,1,0.5,1
49,2023-03-13T00:48:00,2.9,南,10.4,南,15.2,100,0,1,0.5,1
50,2023-03-13T00:49:00,3,南,10.4,南,15.3,100,0,1,0.5,1
51,2023-03-13T00:50:00,3.2,南,10.4,南,15.3,100,0,1,0.5,1
52,2023-03-13T00:51:00,3.1,南,10.4,南,15.3,100,0,1,0.5,1
53,2023-03-13T00:52:00,3.1,南,10.4,南,15.2,100,0,1,0.5,1
54,2023-03-13T00:53:00,3.1,南,10.4,南,15.2,100,0,1,0.5,1
55,2023-03-13T00:54:00,3.1,南,10.4,南,15.2,100,0,1,0.5,1
56,2023-03-13T00:55:00,3.3,南,10.4,南,15.3,100,0,1,0.5,1
57,2023-03-13T00:56:00,3.3,南,10.1,南,15.3,100,0,1,0.5,1
58,2023-03-13T00:57:00,3.1,南,9.3,南南東,15.3,100,0,1,0.5,1
59,2023-03-13T00:58:00,2.7,南,9.3,南南東,15.3,100,0,1,0.5,1
60,2023-03-13T00:59:00,2.7,南,9.3,南南東,15.4,100,0,1,0.5,1
61,2023-03-13T01:00:00,2.6,南,9.3,南南東,15.4,100,0,0.5,0.5,1
62,2023-03-13T01:01:00,2.6,南,9.3,南南東,15.4,100,0,0.5,0.5,1
63,2023-03-13T01:02:00,2.7,南,9.3,南南東,15.3,100,0,0.5,0.5,1
64,2023-03-13T01:03:00,2.6,南,9.3,南南東,15.3,100,0,0.5,0.5,1
65,2023-03-13T01:04:00,2.7,南,9.3,南南東,15.3,100,0,0.5,0.5,1
66,2023-03-13T01:05:00,2.8,南,10.4,南南西,15.3,100,0,0.5,0.5,1
67,2023-03-13T01:06:00,2.8,南,10.4,南南西,15.4,100,0,0.5,0.5,1
68,2023-03-13T01:07:00,2.7,南,10.4,南南西,15.3,100,0,0.5,0.5,1
69,2023-03-13T01:08:00,2.8,南,10.4,南南西,15.2,100,0,0.5,0.5,1
70,2023-03-13T01:09:00,2.7,南,10.4,南南西,15.4,100,0,0.5,0.5,1
71,2023-03-13T01:10:00,2.7,南,10.4,南南西,15.3,100,0,0,0.5,1
72,2023-03-13T01:11:00,3.1,南,12.5,南,15.3,100,0,0,0.5,1
73,2023-03-13T01:12:00,3.2,南,12.9,南南東,15.5,99.9,0,0,0.5,1
74,2023-03-13T01:13:00,3.6,南,12.9,南南東,15.5,99.7,0,0,0.5,1
75,2023-03-13T01:14:00,3.5,南,12.9,南南東,15.5,99.8,0,0,0.5,1
76,2023-03-13T01:15:00,3.5,南,12.9,南南東,15.5,99.7,0,0,0.5,1
77,2023-03-13T01:16:00,3.7,南,12.9,南南東,15.6,99.2,0,0,0.5,1
78,2023-03-13T01:17:00,3.9,南,12.9,南南東,15.6,98.5,0,0,0.5,1
79,2023-03-13T01:18:00,3.8,南,12.9,南南東,15.4,99.1,0,0,0.5,1
80,2023-03-13T01:19:00,3.9,南,12.9,南南東,15.3,100,0,0,0.5,1
81,2023-03-13T01:20:00,3.9,南,12.9,南南東,15.4,100,0,0,0.5,1
82,2023-03-13T01:21:00,3.5,南,12.9,南南東,15.4,100,0,0,0.5,1
83,2023-03-13T01:22:00,3.4,南,11.1,南南東,15.4,100,0,0,0.5,1
84,2023-03-13T01:23:00,3.1,南,11.1,南南東,15.4,100,0,0,0.5,1
85,2023-03-13T01:24:00,3.1,南,11.1,南南東,15.4,100,0,0,0.5,1
86,2023-03-13T01:25:00,3.2,南,11.1,南南東,15.3,100,0,0,0.5,1
87,2023-03-13T01:26:00,3.1,南,9.8,南南東,15.4,100,0,0,0.5,1
88,2023-03-13T01:27:00,3.2,南,9.8,南南東,15.4,100,0,0,0.5,1
89,2023-03-13T01:28:00,3.3,南,9.8,南南東,15.4,100,0,0,0.5,1
90,2023-03-13T01:29:00,3.1,南,9.8,南南東,15.3,100,0,0,0.5,1
91,2023-03-13T01:30:00,3.4,南,9.8,南南東,15.4,100,0,0,0.5,1
92,2023-03-13T01:31:00,3.5,南,9.8,南南東,15.3,100,0,0,0.5,1
93,2023-03-13T01:32:00,3.5,南,9.8,南南東,15.3,100,0,0,0.5,1
94,2023-03-13T01:33:00,3.4,南,9.8,南南東,15.4,100,0,0,0.5,1
95,2023-03-13T01:34:00,3.4,南,9.8,南南東,15.3,100,0,0,0.5,1
96,2023-03-13T01:35:00,3.5,南,9.8,南南東,15.3,100,0,0,0.5,1
97,2023-03-13T01:36:00,3.5,南,8.6,南南東,15.4,100,0,0,0.5,1
98,2023-03-13T01:37:00,3.4,南,8.5,南,15.5,100,0,0,0.5,1
99,2023-03-13T01:38:00,3.5,南,8.5,南,15.6,100,0,0,0.5,1
100,2023-03-13T01:39:00,3.8,南,9,南南東,15.6,100,0,0,0.5,1
101,2023-03-13T01:40:00,3.6,南,9,南南東,15.6,100,0,0,0.5,1
102,2023-03-13T01:41:00,3.7,南,9,南南東,15.6,99.9,0,0,0.5,1
103,2023-03-13T01:42:00,3.7,南,9,南南東,15.6,99.7,0,0,0.5,1
104,2023-03-13T01:43:00,3.7,南,9,南南東,15.6,99.8,0,0,0.5,1
105,2023-03-13T01:44:00,3.8,南,9,南南東,15.5,100,0,0,0.5,1
106,2023-03-13T01:45:00,3.7,南,9,南南東,15.6,100,0,0,0.5,1
107,2023-03-13T01:46:00,3.7,南,9,南南東,15.6,100,0,0,0.5,1
108,2023-03-13T01:47:00,3.8,南,9.9,南,15.6,100,0,0,0.5,1
109,2023-03-13T01:48:00,4.1,南,11.9,南,15.7,100,0,0,0.5,1
110,2023-03-13T01:49:00,3.8,南,11.9,南,15.7,100,0,0,0.5,1
111,2023-03-13T01:50:00,3.9,南,11.9,南,15.6,100,0,0,0.5,1
112,2023-03-13T01:51:00,3.7,南,11.9,南,15.4,100,0,0,0.5,1
113,2023-03-13T01:52:00,3.6,南,11.9,南,15.4,100,0,0,0.5,1
114,2023-03-13T01:53:00,3.5,南,11.9,南,15.3,100,0,0,0.5,1
115,2023-03-13T01:54:00,3.4,南,11.9,南,15.3,100,0,0,0.5,1
116,2023-03-13T01:55:00,3.4,南,11.9,南,15.3,100,0,0,0.5,1
117,2023-03-13T01:56:00,3.4,南,11.9,南,15.2,100,0,0,0.5,1
118,2023-03-13T01:57:00,3.3,南南東,11.9,南,15.3,100,0,0,0.5,1
119,2023-03-13T01:58:00,3.1,南南東,12.3,南南東,15.2,100,0,0,0.5,1
120,2023-03-13T01:59:00,3.3,南南東,12.3,南南東,15.2,100,0,0,0.5,1
121,2023-03-13T02:00:00,3.3,南南東,12.3,南南東,15.2,100,0,0,0.5,1
122,2023-03-13T02:01:00,3.3,南南東,12.3,南南東,15.2,100,0,0,0.5,1
123,2023-03-13T02:02:00,3.3,南南東,12.3,南南東,15.2,100,0,0,0.5,1
124,2023-03-13T02:03:00,3.3,南南東,12.3,南南東,15.1,,0,0,0.5,1
125,2023-03-13T02:04:00,3.3,南南東,12.3,南南東,15.1,,0,0,0.5,1
126,2023-03-13T02:05:00,3.2,南南東,12.3,南南東,15.1,,0,0,0.5,1
127,2023-03-13T02:06:00,3.2,南南東,12.3,南南東,15.1,,0,0,0.5,1
128,2023-03-13T02:07:00,3.1,南南東,12.3,南南東,15,,0,0,0.5,1
129,2023-03-13T02:08:00,2.9,南南東,7.6,南,15,,0,0,0.5,1
130,2023-03-13T02:09:00,2.8,南南東,7.6,南,15,,0,0,0.5,1
131,2023-03-13T02:10:00,2.9,南南東,8.5,南,14.9,,0.5,0.5,1,1.5
132,2023-03-13T02:11:00,3,南南東,9.4,南南東,14.7,,0.5,0.5,1,1.5
133,2023-03-13T02:12:00,3.3,南南東,9.4,南南東,14.4,,1,1,1.5,2
134,2023-03-13T02:13:00,3.6,南南東,13.3,南南東,14.4,,1,1,1.5,2
135,2023-03-13T02:14:00,4.1,南南東,14,南,14.4,,1,1,1.5,2
136,2023-03-13T02:15:00,4.5,南南東,15,南,14.4,,1,1,1.5,2
137,2023-03-13T02:16:00,4.8,南南東,15,南,14.2,,1,1,1.5,2
138,2023-03-13T02:17:00,5.4,南,15,南,14.2,,1,1,1.5,2
139,2023-03-13T02:18:00,5.4,南,15,南,14.1,,1,1,1.5,2
140,2023-03-13T02:19:00,5.3,南,15,南,14,,1,1,1.5,2
141,2023-03-13T02:20:00,5.3,南,15,南,14,,0.5,1,1.5,2
142,2023-03-13T02:21:00,5.2,南南西,15,南,13.9,,1,1.5,2,2.5
143,2023-03-13T02:22:00,5,南南西,15,南,13.9,,0.5,1.5,2,2.5
144,2023-03-13T02:23:00,4.8,南南西,15,南,13.8,,0.5,1.5,2,2.5
145,2023-03-13T02:24:00,4.3,南南西,15,南,13.8,,0.5,1.5,2,2.5
146,2023-03-13T02:25:00,3.9,南南西,14.1,南南西,13.8,,0.5,1.5,2,2.5
147,2023-03-13T02:26:00,3.6,南西,14.1,南南西,13.8,,0.5,1.5,2,2.5
148,2023-03-13T02:27:00,3.4,南西,8.2,南南西,13.8,,0.5,1.5,2,2.5
149,2023-03-13T02:28:00,3.3,南西,8.1,南南西,13.8,,0.5,1.5,2,2.5
150,2023-03-13T02:29:00,3.3,南西,8.1,南南西,13.8,,0.5,1.5,2,2.5
151,2023-03-13T02:30:00,3,南西,8.1,南南西,13.8,,0.5,1.5,2,2.5
152,2023-03-13T02:31:00,2.7,南西,8.1,南南西,13.7,,0,1.5,2,2.5
153,2023-03-13T02:32:00,2.5,南西,8.1,南南西,13.7,,0,1.5,2,2.5
154,2023-03-13T02:33:00,2.4,南西,8.1,南南西,13.7,,0,1.5,2,2.5
155,2023-03-13T02:34:00,2.3,南西,8.1,南南西,13.7,,0.5,2,2.5,3
156,2023-03-13T02:35:00,2.2,南西,8.1,南南西,13.7,,0.5,2,2.5,3
157,2023-03-13T02:36:00,2.1,南西,8,南南西,13.8,,0.5,2,2.5,3
158,2023-03-13T02:37:00,1.7,南南西,5.1,南西,13.8,,0.5,2,2.5,3
159,2023-03-13T02:38:00,1.5,南南西,5.1,南西,13.7,,0.5,2,2.5,3
160,2023-03-13T02:39:00,1.4,南南西,5.1,南西,13.6,,0.5,2,2.5,3
161,2023-03-13T02:40:00,1.5,南南西,5.1,南西,13.5,,0.5,2,2.5,3
162,2023-03-13T02:41:00,1.6,南南西,5.1,南西,13.5,,0.5,2,2.5,3
163,2023-03-13T02:42:00,1.7,南南西,5.1,南西,13.5,,0.5,2,2.5,3
164,2023-03-13T02:43:00,1.7,南南西,5.1,南西,13.6,,0.5,2,2.5,3
165,2023-03-13T02:44:00,1.6,南,5.1,南西,13.5,,0,2,2.5,3
166,2023-03-13T02:45:00,1.5,南,4,南,13.5,,0,2,2.5,3
167,2023-03-13T02:46:00,1.4,南,4.1,南南西,13.5,,0.5,2.5,3,3.5
168,2023-03-13T02:47:00,1.5,南,4.8,南,13.4,,0.5,2.5,3,3.5
169,2023-03-13T02:48:00,1.5,南,4.8,南,13.4,,0.5,2.5,3,3.5
170,2023-03-13T02:49:00,1.7,南,5,南西,13.3,,0.5,2.5,3,3.5
171,2023-03-13T02:50:00,1.8,南,5,南西,13.1,,0.5,2.5,3,3.5
172,2023-03-13T02:51:00,2.1,南南西,6.5,西北西,12.8,,1,3,3.5,4
173,2023-03-13T02:52:00,2.4,南南西,10,西,12.2,,1,3,3.5,4
174,2023-03-13T02:53:00,3,南西,10,西,11.7,,1.5,3.5,4,4.5
175,2023-03-13T02:54:00,3.5,南西,10,西,11.3,,1.5,3.5,4,4.5
176,2023-03-13T02:55:00,3.8,西南西,10,西,11.1,,1.5,3.5,4,4.5
177,2023-03-13T02:56:00,4.3,西南西,10.1,西,11.1,,1,3.5,4,4.5
178,2023-03-13T02:57:00,4.8,西,10.7,西,10.9,,1,3.5,4,4.5
179,2023-03-13T02:58:00,5.3,西,10.7,西,10.7,,1,3.5,4,4.5
180,2023-03-13T02:59:00,5.7,西,10.7,西,10.7,,1.5,4,4.5,5
181,2023-03-13T03:00:00,5.7,西,10.7,西,10.6,,1.5,4,4.5,5
182,2023-03-13T03:01:00,5.7,西北西,10.7,西,10.5,,1,4,4.5,5
183,2023-03-13T03:02:00,5.6,西北西,10.7,西,10.5,,1,4,4.5,5
184,2023-03-13T03:03:00,5.3,西北西,10.7,西,10.5,,0.5,4,4.5,5
185,2023-03-13T03:04:00,5,西北西,10.7,西,10.5,,0.5,4,4.5,5
186,2023-03-13T03:05:00,5,西北西,10.7,西,10.6,,0.5,4,4.5,5
187,2023-03-13T03:06:00,4.6,西北西,10.7,西,10.5,,0.5,4,4.5,5
188,2023-03-13T03:07:00,3.9,西北西,9.5,西北西,10.5,,0.5,4,4.5,5
189,2023-03-13T03:08:00,3.4,西北西,9,西南西,10.6,,0.5,4,4.5,5
190,2023-03-13T03:09:00,2.8,西北西,7.8,北西,10.6,,0,4,4.5,5
191,2023-03-13T03:10:00,2.6,西北西,7.8,北西,10.5,,0,3.5,4.5,5
192,2023-03-13T03:11:00,2.2,西北西,7.8,北西,10.6,,0,3.5,4.5,5
193,2023-03-13T03:12:00,1.9,西北西,7.8,北西,10.7,,0,3,4.5,5
194,2023-03-13T03:13:00,1.7,西北西,7.8,北西,10.8,,0,3,4.5,5
195,2023-03-13T03:14:00,1.5,西北西,7.8,北西,10.7,,0,3,4.5,5
196,2023-03-13T03:15:00,1.2,西北西,7.8,北西,10.7,,0,3,4.5,5
197,2023-03-13T03:16:00,1,西北西,3.2,西北西,10.6,,0,3,4.5,5
198,2023-03-13T03:17:00,1.1,西北西,3.2,西北西,10.6,,0,3,4.5,5
199,2023-03-13T03:18:00,1.2,西,3.6,西,10.6,,0,3,4.5,5
200,2023-03-13T03:19:00,1.3,西,4.5,西北西,10.6,,0,3,4.5,5
201,2023-03-13T03:20:00,1.3,西,4.5,西北西,10.5,,0,3,4.5,5
202,2023-03-13T03:21:00,1.4,西,4.5,西北西,10.5,,0,2.5,4.5,5
203,2023-03-13T03:22:00,1.4,西,4.5,西北西,10.5,,0,2.5,4.5,5
204,2023-03-13T03:23:00,1.4,西南西,4.5,西北西,10.4,,0,2.5,4.5,5
205,2023-03-13T03:24:00,1.5,西南西,4.5,西北西,10.3,,0,2.5,4.5,5
206,2023-03-13T03:25:00,1.7,西南西,4.9,西北西,10.2,,0,2.5,4.5,5
207,2023-03-13T03:26:00,1.7,西南西,4.9,西北西,10.2,,0,2.5,4.5,5
208,2023-03-13T03:27:00,1.8,西南西,4.9,西北西,10.2,,0,2.5,4.5,5
209,2023-03-13T03:28:00,2,西南西,5.7,西,10.2,,0.5,3,5,5.5
210,2023-03-13T03:29:00,2.1,西南西,5.7,西,10.1,,0.5,3,5,5.5
211,2023-03-13T03:30:00,2.3,西,5.7,西,10,,0.5,3,5,5.5
212,2023-03-13T03:31:00,2.4,西,5.7,西,10,,0.5,3,5,5.5
213,2023-03-13T03:32:00,2.4,西,5.7,西,9.9,,0.5,3,5,5.5
214,2023-03-13T03:33:00,2.4,西,5.7,西,9.9,,0.5,3,5,5.5
215,2023-03-13T03:34:00,2.2,西,5.7,西,10,,0.5,2.5,5,5.5
216,2023-03-13T03:35:00,2,西,5.7,西,9.9,,0.5,2.5,5,5.5
217,2023-03-13T03:36:00,1.9,西,5.7,西,9.7,,0.5,2.5,5,5.5
218,2023-03-13T03:37:00,1.7,西,5.7,西,9.7,,0.5,2.5,5,5.5
219,2023-03-13T03:38:00,1.3,西,4.9,西北西,9.7,,0,2.5,5,5.5
220,2023-03-13T03:39:00,1.1,西南西,4.2,西北西,9.6,,0,2.5,5,5.5
221,2023-03-13T03:40:00,1,南西,3.6,西北西,9.7,,0,2.5,5,5.5
222,2023-03-13T03:41:00,0.9,南,2.6,西北西,9.7,,0,2.5,5,5.5
223,2023-03-13T03:42:00,0.8,南南東,2.2,東南東,9.8,,0,2.5,5,5.5
224,2023-03-13T03:43:00,0.7,南東,2.2,東南東,9.7,,0,2.5,5,5.5
225,2023-03-13T03:44:00,0.7,南東,2.2,東南東,9.9,,0,2.5,5,5.5
226,2023-03-13T03:45:00,0.7,南東,2.2,東南東,9.9,,0,2.5,5,5.5
227,2023-03-13T03:46:00,0.7,南東,2.2,東南東,10.1,,0,2,5,5.5
228,2023-03-13T03:47:00,0.7,南東,2.2,東南東,10,,0,2,5,5.5
229,2023-03-13T03:48:00,0.8,南東,2.2,東南東,9.8,,0,2,5,5.5
230,2023-03-13T03:49:00,0.7,南南東,2.2,東南東,9.7,,0.5,2.5,5.5,6
231,2023-03-13T03:50:00,0.6,南,2.2,東南東,9.8,,0.5,2.5,5.5,6
232,2023-03-13T03:51:00,0.6,南,1.9,南,9.7,,0.5,2,5.5,6
233,2023-03-13T03:52:00,0.6,南南西,1.9,南,9.8,,0.5,2,5.5,6
234,2023-03-13T03:53:00,0.6,南南西,1.9,南,9.9,,0.5,1.5,5.5,6
235,2023-03-13T03:54:00,0.6,南南西,1.9,南,9.8,,0.5,1.5,5.5,6
236,2023-03-13T03:55:00,0.7,南南西,1.9,南,9.8,,0.5,1.5,5.5,6
237,2023-03-13T03:56:00,0.7,南,2.3,南,9.7,,0.5,1.5,5.5,6
238,2023-03-13T03:57:00,0.9,南,3.2,南,9.7,,0.5,1.5,5.5,6
239,2023-03-13T03:58:00,1,南,3.2,南,9.7,,0.5,1.5,5.5,6
240,2023-03-13T03:59:00,1.1,南,3.2,南,9.8,,0,1,5.5,6
241,2023-03-13T04:00:00,1.2,南,3.2,南,9.7,,0,1,5.5,6
242,2023-03-13T04:01:00,1.2,南南東,3.2,南,9.7,,0,1,5.5,6
243,2023-03-13T04:02:00,1.3,南南東,3.2,南,9.7,,0,1,5.5,6
244,2023-03-13T04:03:00,1.3,南南東,3.2,南,9.7,,0,1,5.5,6
245,2023-03-13T04:04:00,1.3,南南東,3.2,南,9.7,,0,1,5.5,6
246,2023-03-13T04:05:00,1.4,南南東,3.2,南,9.8,,0,1,5.5,6
247,2023-03-13T04:06:00,1.4,南南東,3.2,南,9.7,,0,1,5.5,6
248,2023-03-13T04:07:00,1.4,南南東,3.8,南,9.8,,0,1,5.5,6
249,2023-03-13T04:08:00,1.4,南南東,4,南東,9.9,,0,1,5.5,6
250,2023-03-13T04:09:00,1.4,南南東,4,南東,10.3,,0,1,5.5,6
251,2023-03-13T04:10:00,1.4,南,4,南東,10.5,,0,1,5.5,6
252,2023-03-13T04:11:00,1.5,南,4,南東,10.4,,0,1,5.5,6
253,2023-03-13T04:12:00,1.6,南,4.1,南南西,10.5,,0,1,5.5,6
254,2023-03-13T04:13:00,1.5,南,4.1,南南西,10.6,,0,1,5.5,6
255,2023-03-13T04:14:00,1.5,南,4.1,南南西,10.5,,0,1,5.5,6
256,2023-03-13T04:15:00,1.5,南,4.1,南南西,10.3,,0,1,5.5,6
257,2023-03-13T04:16:00,1.5,南,4.1,南南西,10.3,,0,1,5.5,6
258,2023-03-13T04:17:00,1.4,南,4.1,南南西,10.2,,0,1,5.5,6
259,2023-03-13T04:18:00,1.5,南,4.1,南南西,10.1,,0,1,5.5,6
260,2023-03-13T04:19:00,1.6,南南東,4.1,南南西,9.9,,0,1,5.5,6
261,2023-03-13T04:20:00,1.6,南南東,4.1,南南西,9.9,,0,1,5.5,6
262,2023-03-13T04:21:00,1.5,南南東,4.1,南南西,10,,0,1,5.5,6
263,2023-03-13T04:22:00,1.6,南東,3.8,南東,10,,0,1,5.5,6
264,2023-03-13T04:23:00,1.7,南東,3.8,南東,9.9,,0,1,5.5,6
265,2023-03-13T04:24:00,1.7,南東,3.8,南東,9.8,,0,1,5.5,6
266,2023-03-13T04:25:00,1.7,南東,3.8,南東,9.7,,0,1,5.5,6
267,2023-03-13T04:26:00,1.7,南東,3.8,南東,9.6,,0,1,5.5,6
268,2023-03-13T04:27:00,1.7,南東,3.8,南東,9.6,,0,1,5.5,6
269,2023-03-13T04:28:00,1.6,南東,3.8,南東,9.5,,0,0.5,5.5,6
270,2023-03-13T04:29:00,1.4,南東,2.9,南東,9.5,,0,0.5,5.5,6
271,2023-03-13T04:30:00,1.4,南東,2.9,南東,9.6,,0,0.5,5.5,6
272,2023-03-13T04:31:00,1.5,南東,3.2,南東,9.5,,0,0.5,5.5,6
273,2023-03-13T04:32:00,1.5,南東,3.2,南東,9.4,,0.5,1,6,6.5
274,2023-03-13T04:33:00,1.6,東南東,3.6,東南東,9.4,,0.5,1,6,6.5
275,2023-03-13T04:34:00,1.6,東南東,3.6,東南東,9.4,,0.5,1,6,6.5
276,2023-03-13T04:35:00,1.8,東南東,3.6,東南東,9.4,,0.5,1,6,6.5
277,2023-03-13T04:36:00,1.8,東南東,3.6,東南東,9.4,,0.5,1,6,6.5
278,2023-03-13T04:37:00,1.8,東南東,3.6,東南東,9.5,,0.5,1,6,6.5
279,2023-03-13T04:38:00,1.8,東南東,3.6,東南東,9.5,,0.5,1,6,6.5
280,2023-03-13T04:39:00,2,東南東,4,東南東,9.5,,0.5,1,6,6.5
281,2023-03-13T04:40:00,2,東南東,4,東南東,9.5,,0.5,1,6,6.5
282,2023-03-13T04:41:00,2,東南東,4,東南東,9.6,,0.5,1,6,6.5
283,2023-03-13T04:42:00,1.9,東南東,4,東南東,9.5,,0,1,6,6.5
284,2023-03-13T04:43:00,1.8,東南東,4,東南東,9.5,,0,1,6,6.5
285,2023-03-13T04:44:00,1.7,東南東,4,東南東,9.4,,0,1,6,6.5
286,2023-03-13T04:45:00,1.6,南東,4,東南東,9.4,,0,1,6,6.5
287,2023-03-13T04:46:00,1.6,南東,4,東南東,9.3,,0,1,6,6.5
288,2023-03-13T04:47:00,1.6,南東,4,東南東,9.3,,0,1,6,6.5
289,2023-03-13T04:48:00,1.5,南南東,4,東南東,9.3,,0,1,6,6.5
290,2023-03-13T04:49:00,1.4,南南東,3.8,南,9.3,,0,0.5,6,6.5
291,2023-03-13T04:50:00,1.3,南,3.8,南,9.3,,0,0.5,6,6.5
292,2023-03-13T04:51:00,1.3,南,3.8,南,9.2,,0,0.5,6,6.5
293,2023-03-13T04:52:00,1.3,南,3.8,南,9.3,,0,0.5,6,6.5
294,2023-03-13T04:53:00,1.3,南,3.8,南,9.2,,0,0.5,6,6.5
295,2023-03-13T04:54:00,1.3,南,3.8,南,9.2,,0,0.5,6,6.5
296,2023-03-13T04:55:00,1.4,南,3.8,南,9.2,,0,0.5,6,6.5
297,2023-03-13T04:56:00,1.5,南,3.8,南,9.2,,0,0.5,6,6.5
298,2023-03-13T04:57:00,1.5,南,3.6,南西,9.2,,0,0.5,6,6.5
299,2023-03-13T04:58:00,1.5,南,3.6,南西,9.2,,0,0.5,6,6.5
300,2023-03-13T04:59:00,1.5,南,3.6,南西,9.2,,0,0.5,6,6.5
301,2023-03-13T05:00:00,1.5,南南東,3.6,南西,9.2,,0,0.5,6,6.5
302,2023-03-13T05:01:00,1.6,南南東,3.6,南西,9.2,,0,0.5,6,6.5
303,2023-03-13T05:02:00,1.6,南,3.6,南西,9.2,,0,0.5,6,6.5
304,2023-03-13T05:03:00,1.6,南,3.6,南西,9.3,,0,0.5,6,6.5
305,2023-03-13T05:04:00,1.6,南,3.6,南西,9.2,,0,0.5,6,6.5
306,2023-03-13T05:05:00,1.5,南,3.6,南西,9.2,,0,0.5,6,6.5
307,2023-03-13T05:06:00,1.4,南,3,南南西,9.2,,0,0.5,6,6.5
308,2023-03-13T05:07:00,,"",,"",,,,,,
309,2023-03-13T05:08:00,,"",,"",,,,,,
310,2023-03-13T05:09:00,1.5,南,3.9,南西,9.3,,0,0.5,6,6.5
311,2023-03-13T05:10:00,1.5,南,3.9,南西,9.5,,0,0.5,6,6.5
312,2023-03-13T05:11:00,1.5,南南西,3.9,南西,9.5,,0,0.5,6,6.5
313,2023-03-13T05:12:00,1.6,南南西,3.9,南西,9.5,,0,0.5,6,6.5
314,2023-03-13T05:13:00,1.6,南南西,3.9,南西,9.5,,0,0.5,6,6.5
315,2023-03-13T05:14:00,1.7,南南西,3.9,南西,9.5,,0,0.5,6,6.5
316,2023-03-13T05:15:00,1.7,南南西,3.9,南西,9.5,,0,0.5,6,6.5
317,2023-03-13T05:16:00,1.8,南南西,4,南南西,9.5,,0,0.5,6,6.5
318,2023-03-13T05:17:00,1.8,南南西,4,南南西,9.5,,0,0.5,6,6.5
319,2023-03-13T05:18:00,1.7,南南西,4,南南西,9.5,,0,0.5,6,6.5
320,2023-03-13T05:19:00,1.7,南南西,4,南南西,9.5,,0,0.5,6,6.5
321,2023-03-13T05:20:00,1.6,南,4,南南西,9.4,,0,0.5,6,6.5
322,2023-03-13T05:21:00,1.5,南,4,南南西,9.4,,0,0.5,6,6.5
323,2023-03-13T05:22:00,1.6,南,5.4,南南西,9.5,,0,0.5,6,6.5
324,2023-03-13T05:23:00,1.6,南,5.4,南南西,9.5,,0,0.5,6,6.5
325,2023-03-13T05:24:00,1.6,南,5.4,南南西,9.4,,0,0.5,6,6.5
326,2023-03-13T05:25:00,1.6,南,5.4,南南西,9.4,,0,0.5,6,6.5
327,2023-03-13T05:26:00,1.4,南,5.4,南南西,9.5,,0,0.5,6,6.5
328,2023-03-13T05:27:00,1.3,南,5.4,南南西,9.6,,0,0.5,6,6.5
329,2023-03-13T05:28:00,1.2,南,5.4,南南西,9.6,,0,0.5,6,6.5
330,2023-03-13T05:29:00,1.2,南南西,5.4,南南西,9.6,,0,0.5,6,6.5
331,2023-03-13T05:30:00,1.2,南南西,5.4,南南西,9.7,,0,0.5,6,6.5
332,2023-03-13T05:31:00,1.1,南南西,5.4,南南西,9.7,,0,0.5,6,6.5
333,2023-03-13T05:32:00,1,南西,3.9,南,9.8,,0,0,6,6.5
334,2023-03-13T05:33:00,0.8,南西,3.1,南東,9.7,,0,0,6,6.5
335,2023-03-13T05:34:00,0.7,南西,2.3,南南西,9.8,,0,0,6,6.5
336,2023-03-13T05:35:00,0.6,西南西,1.6,南西,9.7,,0,0,6,6.5
337,2023-03-13T05:36:00,0.6,南西,1.4,南西,9.7,,0,0,6,6.5
338,2023-03-13T05:37:00,0.5,南西,1.4,南西,9.7,,0,0,6,6.5
339,2023-03-13T05:38:00,0.5,南西,1.4,南西,9.7,,0,0,6,6.5
340,2023-03-13T05:39:00,0.5,南西,1.4,南西,9.7,,0,0,6,6.5
341,2023-03-13T05:40:00,0.5,南西,1.5,南西,9.6,,0,0,6,6.5
342,2023-03-13T05:41:00,0.5,南西,1.5,南西,9.7,,0,0,6,6.5
343,2023-03-13T05:42:00,0.5,南西,1.5,南西,9.6,,0,0,6,6.5
344,2023-03-13T05:43:00,0.5,南南西,2.3,南西,9.5,,0,0,6,6.5
345,2023-03-13T05:44:00,0.6,南南西,2.3,南西,9.4,,0,0,6,6.5
346,2023-03-13T05:45:00,0.7,南,2.3,南西,9.3,,0,0,6,6.5
347,2023-03-13T05:46:00,0.7,南,2.3,南西,9.2,,0,0,6,6.5
348,2023-03-13T05:47:00,0.7,南,2.3,南西,9.4,,0,0,6,6.5
349,2023-03-13T05:48:00,0.8,南,2.5,南,9.3,,0,0,6,6.5
350,2023-03-13T05:49:00,0.9,南南西,2.5,南,9.3,,0,0,6,6.5
351,2023-03-13T05:50:00,1,南南西,3,南南西,9.3,,0,0,6,6.5
352,2023-03-13T05:51:00,1,南,3,南南西,9.4,,0,0,6,6.5
353,2023-03-13T05:52:00,1.1,南,3,南南西,9.4,,0,0,6,6.5
354,2023-03-13T05:53:00,1.1,南南西,3,南南西,9.4,,0,0,6,6.5
355,2023-03-13T05:54:00,1.1,南南西,3,南南西,9.4,,0,0,6,6.5
356,2023-03-13T05:55:00,1.2,南南西,3,南南西,9.3,,0,0,6,6.5
357,2023-03-13T05:56:00,1.4,南南西,4.3,南,9.4,,0,0,6,6.5
358,2023-03-13T05:57:00,1.5,南南西,4.3,南,9.6,,0,0,6,6.5
359,2023-03-13T05:58:00,1.6,南南西,5.3,南南西,9.6,,0,0,6,6.5
360,2023-03-13T05:59:00,1.6,南南西,5.3,南南西,9.7,,0,0,6,6.5
361,2023-03-13T06:00:00,1.5,南南西,5.3,南南西,9.3,,0,0,6,6.5
362,2023-03-13T06:01:00,1.5,南,5.3,南南西,9.1,,0,0,6,6.5
363,2023-03-13T06:02:00,1.4,南,5.3,南南西,8.9,,0,0,6,6.5
364,2023-03-13T06:03:00,1.4,南,5.3,南南西,8.9,,0,0,6,6.5
365,2023-03-13T06:04:00,1.4,南,5.3,南南西,8.9,,0,0,6,6.5
366,2023-03-13T06:05:00,1.4,南,5.3,南南西,8.9,,0,0,6,6.5
367,2023-03-13T06:06:00,1.2,南,5.3,南南西,9,,0,0,6,6.5
368,2023-03-13T06:07:00,1.3,南南東,5.3,南南西,9,,0,0,6,6.5
369,2023-03-13T06:08:00,1.2,南南東,3.9,南,9,,0,0,6,6.5
370,2023-03-13T06:09:00,1.2,南南東,3.9,南,9,,0,0,6,6.5
371,2023-03-13T06:10:00,1.2,南南東,3.9,南,9,,0,0,6,6.5
372,2023-03-13T06:11:00,1.1,南南東,3.9,南,9.1,,0,0,6,6.5
373,2023-03-13T06:12:00,1.2,南南東,3.9,南,8.9,,0,0,6,6.5
374,2023-03-13T06:13:00,1.2,南南東,3.9,南,8.9,,0,0,6,6.5
375,2023-03-13T06:14:00,1.2,南南東,3.9,南,9.2,,0,0,6,6.5
376,2023-03-13T06:15:00,1.2,南,3.9,南,9.3,,0,0,6,6.5
377,2023-03-13T06:16:00,1.1,南,3.3,南南西,9.3,,0,0,6,6.5
378,2023-03-13T06:17:00,1.1,南,3.3,南南西,9.3,,0,0,6,6.5
379,2023-03-13T06:18:00,1.1,南,3.3,南南西,9.4,,0,0,6,6.5
380,2023-03-13T06:19:00,1.1,南,3.7,南,9.3,,0,0,6,6.5
381,2023-03-13T06:20:00,1.3,南,4.6,南南西,9.4,,0,0,6,6.5
382,2023-03-13T06:21:00,1.3,南,4.6,南南西,9.4,,0,0,6,6.5
383,2023-03-13T06:22:00,1.3,南,4.6,南南西,9.3,,0,0,6,6.5
384,2023-03-13T06:23:00,1.3,南,4.6,南南西,9.1,,0,0,6,6.5
385,2023-03-13T06:24:00,1.3,南,4.6,南南西,9.3,,0,0,6,6.5
386,2023-03-13T06:25:00,1.3,南,4.6,南南西,9.3,,0,0,6,6.5
387,2023-03-13T06:26:00,1.3,南,4.6,南南西,9.3,,0,0,6,6.5
388,2023-03-13T06:27:00,1.3,南,4.6,南南西,9.2,,0,0,6,6.5
389,2023-03-13T06:28:00,1.2,南,4.6,南南西,9.2,,0,0,6,6.5
390,2023-03-13T06:29:00,1.2,南,4.6,南南西,9.1,,0,0,6,6.5
391,2023-03-13T06:30:00,1.1,南,4,南,9.1,,0,0,6,6.5
392,2023-03-13T06:31:00,1.1,南,4,南,9.3,,0,0,6,6.5
393,2023-03-13T06:32:00,1.2,南,4,南,9.2,,0,0,6,6.5
394,2023-03-13T06:33:00,1.1,南,4,南,9,,0,0,6,6.5
395,2023-03-13T06:34:00,1,南,2.8,南南西,9.1,,0,0,6,6.5
396,2023-03-13T06:35:00,1.1,南,3.1,南南東,9.2,,0,0,6,6.5
397,2023-03-13T06:36:00,1.1,南,3.1,南南東,9.1,,0,0,6,6.5
398,2023-03-13T06:37:00,1.2,南,3.5,南南西,9.3,,0,0,6,6.5
399,2023-03-13T06:38:00,1.2,南,3.5,南南西,9.2,,0,0,6,6.5
400,2023-03-13T06:39:00,1.2,南,3.5,南南西,9,,0,0,6,6.5
401,2023-03-13T06:40:00,1.2,南,3.5,南南西,9,,0,0,6,6.5
402,2023-03-13T06:41:00,1.2,南,3.5,南南西,8.9,,0,0,6,6.5
403,2023-03-13T06:42:00,1.2,南南東,3.5,南南西,8.9,,0,0,6,6.5
404,2023-03-13T06:43:00,1.2,南,3.5,南南西,8.9,,0,0,6,6.5
405,2023-03-13T06:44:00,1.3,南南東,3.5,南南西,9.1,,0,0,6,6.5
406,2023-03-13T06:45:00,1.2,南南東,3.5,南南西,9,,0,0,6,6.5
407,2023-03-13T06:46:00,1.2,南南東,3.5,南南西,9,,0,0,6,6.5
408,2023-03-13T06:47:00,1.1,南南東,2.9,南南西,8.9,,0,0,6,6.5
409,2023-03-13T06:48:00,1.1,南南東,2.9,南南西,8.9,,0,0,6,6.5
410,2023-03-13T06:49:00,1.1,南南東,2.9,南南西,8.9,,0,0,6,6.5
411,2023-03-13T06:50:00,1.1,南南東,2.9,南南西,9,,0,0,6,6.5
412,2023-03-13T06:51:00,1,南南東,2.9,南南西,8.9,,0,0,6,6.5
413,2023-03-13T06:52:00,1,南東,2.9,南南西,8.8,,0,0,6,6.5
414,2023-03-13T06:53:00,0.8,南東,2.3,南南西,9.1,,0,0,6,6.5
415,2023-03-13T06:54:00,0.8,南東,1.8,南東,9,,0,0,6,6.5
416,2023-03-13T06:55:00,0.8,南東,1.8,南東,8.9,,0,0,6,6.5
417,2023-03-13T06:56:00,0.8,東南東,1.8,南東,8.8,,0,0,6,6.5
418,2023-03-13T06:57:00,0.8,東南東,2,北東,8.7,,0,0,6,6.5
419,2023-03-13T06:58:00,0.8,東,2,北東,8.6,,0,0,6,6.5
420,2023-03-13T06:59:00,0.8,東,2,北東,8.8,,0,0,6,6.5
421,2023-03-13T07:00:00,0.8,東,2,北東,8.7,,0,0,6,6.5
422,2023-03-13T07:01:00,0.8,東,2,北東,8.7,,0,0,6,6.5
423,2023-03-13T07:02:00,0.8,東北東,2,北東,8.7,,0,0,6,6.5
424,2023-03-13T07:03:00,0.8,東北東,2,北東,8.5,,0,0,6,6.5
425,2023-03-13T07:04:00,0.8,東北東,2,北東,8.6,,0,0,6,6.5
426,2023-03-13T07:05:00,0.8,東北東,2,北東,8.5,,0,0,6,6.5
427,2023-03-13T07:06:00,0.9,東北東,2.1,東北東,8.5,,0,0,6,6.5
428,2023-03-13T07:07:00,0.9,東北東,2.1,東北東,8.6,,0,0,6,6.5
429,2023-03-13T07:08:00,0.9,東北東,2.1,東北東,8.6,,0,0,6,6.5
430,2023-03-13T07:09:00,1,東北東,2.1,東北東,8.6,,0,0,6,6.5
431,2023-03-13T07:10:00,1,東北東,2.1,東北東,8.6,,0,0,6,6.5
432,2023-03-13T07:11:00,1,東北東,2.1,東北東,8.7,,0,0,6,6.5
433,2023-03-13T07:12:00,1,東北東,2.1,東北東,8.7,,0,0,6,6.5
434,2023-03-13T07:13:00,0.9,東,2.1,東北東,8.7,,0,0,6,6.5
435,2023-03-13T07:14:00,0.9,東,2.1,東北東,8.7,,0,0,6,6.5
436,2023-03-13T07:15:00,0.8,東,2.1,東北東,8.7,,0,0,6,6.5
437,2023-03-13T07:16:00,0.8,東,1.8,東北東,8.6,,0,0,6,6.5
438,2023-03-13T07:17:00,0.8,東,1.7,東北東,8.6,,0,0,6,6.5
439,2023-03-13T07:18:00,0.7,東北東,1.6,北東,8.6,,0,0,6,6.5
440,2023-03-13T07:19:00,,"",,"",,,,,,